Nissho Maru — JD2650 — position and weather

sailwx.info

Track history (hours):
 
Tides and Currents Weather Stations Pressure Air Temp Water Temp Dewpoint Dewpoint Depression Visibility Wind Speed Wind Dir Waves Ship Positions

Nissho Maru

Last reported at 2018-Feb-25 02:00 UTC. Time now 2018-Feb-26 01:33 UTC.
Position N 41°27' E 141°30'.

Length 75 m; draft 4.6 m.

Type: Cargo ship. MMSI: 431000572.

Date/timePositionNaut miles runAvg speedWind from/ knotsBaromVisibWave heightAir tempDewpointWater temp
2018-Feb-25 02:00N 41°27' E 141°30'4 5.5
2018-Feb-25 01:17N 41°25' E 141°26'0 0.0
2018-Feb-25 01:00N 41°25' E 141°26'0 0.0
2018-Feb-25 00:26N 41°25' E 141°26'0 0.1
2018-Feb-24 23:18N 41°25' E 141°26'1 2.1
2018-Feb-24 22:59N 41°24' E 141°25'1 1.4
2018-Feb-24 22:27N 41°25' E 141°24'  
2018-Feb-22 13:00N 35°01' E 140°10'811.0
2018-Feb-22 12:17N 34°56' E 140°03'1210.6
2018-Feb-22 11:12N 34°53' E 139°49'211.7
2018-Feb-22 11:01N 34°54' E 139°47'611.3
2018-Feb-22 10:30N 34°58' E 139°43'611.4
2018-Feb-22 10:00N 35°04' E 139°45'611.6
2018-Feb-22 09:30N 35°10' E 139°46'611.6
2018-Feb-22 09:01N 35°15' E 139°46'611.3
2018-Feb-22 08:30N 35°20' E 139°43'510.0
2018-Feb-22 08:00N 35°24' E 139°39'1 2.1
2018-Feb-22 07:30N 35°24' E 139°37'0 0.0
2018-Feb-22 07:00N 35°24' E 139°37'0 0.0
2018-Feb-22 06:30N 35°24' E 139°37'0 0.0
2018-Feb-22 05:59N 35°24' E 139°37'0 0.0
2018-Feb-22 05:29N 35°24' E 139°37'0 0.0
2018-Feb-22 04:59N 35°24' E 139°37'0 0.0
2018-Feb-22 04:29N 35°24' E 139°37'0 0.0
2018-Feb-22 03:59N 35°24' E 139°37'0 0.0
2018-Feb-22 03:29N 35°24' E 139°37'0 0.0
2018-Feb-22 02:59N 35°24' E 139°37'0 0.0
2018-Feb-22 02:29N 35°24' E 139°37'0 0.0
2018-Feb-22 01:59N 35°24' E 139°37'0 0.0
2018-Feb-22 01:29N 35°24' E 139°37'0 0.0
2018-Feb-22 00:59N 35°24' E 139°37'0 0.0
2018-Feb-22 00:29N 35°24' E 139°37'0 0.0
2018-Feb-21 23:59N 35°24' E 139°37'0 0.0
2018-Feb-21 23:30N 35°24' E 139°37'0 0.5
2018-Feb-21 23:00N 35°24' E 139°38'2 4.9
2018-Feb-21 22:30N 35°23' E 139°41'4 8.4
2018-Feb-21 22:00N 35°20' E 139°43'611.9
2018-Feb-21 21:30N 35°14' E 139°47'612.1
2018-Feb-21 21:00N 35°08' E 139°47'612.2
2018-Feb-21 20:30N 35°02' E 139°45'16 7.3
2018-Feb-21 18:18N 34°56' E 140°03'397 7.6
2018-Feb-19 14:19N 41°27' E 141°31'3 9.7
2018-Feb-19 14:00N 41°27' E 141°27'2 3.7
2018-Feb-19 13:30N 41°25' E 141°26'0 0.0
2018-Feb-19 11:20N 41°25' E 141°26'1 0.1
2018-Feb-19 06:26N 41°25' E 141°25'5 9.2
2018-Feb-19 05:56N 41°29' E 141°24'512.2
2018-Feb-19 05:30N 41°34' E 141°22'612.3
2018-Feb-19 05:00N 41°40' E 141°20'612.4
2018-Feb-19 04:30N 41°46' E 141°19'  
2018-Feb-16 21:50N 41°53' E 141°13'412.2
2018-Feb-16 21:30N 41°50' E 141°16'612.1
2018-Feb-16 21:01N 41°45' E 141°20'611.8
2018-Feb-16 20:29N 41°39' E 141°25'611.5
2018-Feb-16 19:56N 41°34' E 141°29'39810.9
2018-Feb-15 07:25N 35°00' E 140°12'2212.1
2018-Feb-15 05:37N 34°51' E 139°48'312.6
2018-Feb-15 05:24N 34°51' E 139°45'712.8
2018-Feb-15 04:53N 34°51' E 139°37'512.5
2018-Feb-15 04:30N 34°50' E 139°31'713.2
2018-Feb-15 04:00N 34°50' E 139°23'613.1
2018-Feb-15 03:30N 34°47' E 139°16'913.5
2018-Feb-15 02:50N 34°42' E 139°07'512.2
2018-Feb-15 02:28N 34°39' E 139°02'613.2
2018-Feb-15 02:00N 34°36' E 138°56'  
Track history (hours):
 
Tides and Currents Weather Stations Pressure Air Temp Water Temp Dewpoint Dewpoint Depression Visibility Wind Speed Wind Dir Waves Ship Positions

Nissho Maru

Last reported at 2018-Feb-25 02:00 UTC. Time now 2018-Feb-26 01:33 UTC.
Position N 41°27' E 141°30'.

Length 75 m; draft 4.6 m.

Type: Cargo ship. MMSI: 431000572.

Date/timePositionNaut miles runAvg speedWind from/ knotsBaromVisibWave heightAir tempDewpointWater temp
2018-Feb-25 02:00N 41°27' E 141°30'4 5.5
2018-Feb-25 01:17N 41°25' E 141°26'0 0.0
2018-Feb-25 01:00N 41°25' E 141°26'0 0.0
2018-Feb-25 00:26N 41°25' E 141°26'0 0.1
2018-Feb-24 23:18N 41°25' E 141°26'1 2.1
2018-Feb-24 22:59N 41°24' E 141°25'1 1.4
2018-Feb-24 22:27N 41°25' E 141°24'  
2018-Feb-22 13:00N 35°01' E 140°10'811.0
2018-Feb-22 12:17N 34°56' E 140°03'1210.6
2018-Feb-22 11:12N 34°53' E 139°49'211.7
2018-Feb-22 11:01N 34°54' E 139°47'611.3
2018-Feb-22 10:30N 34°58' E 139°43'611.4
2018-Feb-22 10:00N 35°04' E 139°45'611.6
2018-Feb-22 09:30N 35°10' E 139°46'611.6
2018-Feb-22 09:01N 35°15' E 139°46'611.3
2018-Feb-22 08:30N 35°20' E 139°43'510.0
2018-Feb-22 08:00N 35°24' E 139°39'1 2.1
2018-Feb-22 07:30N 35°24' E 139°37'0 0.0
2018-Feb-22 07:00N 35°24' E 139°37'0 0.0
2018-Feb-22 06:30N 35°24' E 139°37'0 0.0
2018-Feb-22 05:59N 35°24' E 139°37'0 0.0
2018-Feb-22 05:29N 35°24' E 139°37'0 0.0
2018-Feb-22 04:59N 35°24' E 139°37'0 0.0
2018-Feb-22 04:29N 35°24' E 139°37'0 0.0
2018-Feb-22 03:59N 35°24' E 139°37'0 0.0
2018-Feb-22 03:29N 35°24' E 139°37'0 0.0
2018-Feb-22 02:59N 35°24' E 139°37'0 0.0
2018-Feb-22 02:29N 35°24' E 139°37'0 0.0
2018-Feb-22 01:59N 35°24' E 139°37'0 0.0
2018-Feb-22 01:29N 35°24' E 139°37'0 0.0
2018-Feb-22 00:59N 35°24' E 139°37'0 0.0
2018-Feb-22 00:29N 35°24' E 139°37'0 0.0
2018-Feb-21 23:59N 35°24' E 139°37'0 0.0
2018-Feb-21 23:30N 35°24' E 139°37'0 0.5
2018-Feb-21 23:00N 35°24' E 139°38'2 4.9
2018-Feb-21 22:30N 35°23' E 139°41'4 8.4
2018-Feb-21 22:00N 35°20' E 139°43'611.9
2018-Feb-21 21:30N 35°14' E 139°47'612.1
2018-Feb-21 21:00N 35°08' E 139°47'612.2
2018-Feb-21 20:30N 35°02' E 139°45'16 7.3
2018-Feb-21 18:18N 34°56' E 140°03'397 7.6
2018-Feb-19 14:19N 41°27' E 141°31'3 9.7
2018-Feb-19 14:00N 41°27' E 141°27'2 3.7
2018-Feb-19 13:30N 41°25' E 141°26'0 0.0
2018-Feb-19 11:20N 41°25' E 141°26'1 0.1
2018-Feb-19 06:26N 41°25' E 141°25'5 9.2
2018-Feb-19 05:56N 41°29' E 141°24'512.2
2018-Feb-19 05:30N 41°34' E 141°22'612.3
2018-Feb-19 05:00N 41°40' E 141°20'612.4
2018-Feb-19 04:30N 41°46' E 141°19'  
2018-Feb-16 21:50N 41°53' E 141°13'412.2
2018-Feb-16 21:30N 41°50' E 141°16'612.1
2018-Feb-16 21:01N 41°45' E 141°20'611.8
2018-Feb-16 20:29N 41°39' E 141°25'611.5
2018-Feb-16 19:56N 41°34' E 141°29'39810.9
2018-Feb-15 07:25N 35°00' E 140°12'2212.1
2018-Feb-15 05:37N 34°51' E 139°48'312.6
2018-Feb-15 05:24N 34°51' E 139°45'712.8
2018-Feb-15 04:53N 34°51' E 139°37'512.5
2018-Feb-15 04:30N 34°50' E 139°31'713.2
2018-Feb-15 04:00N 34°50' E 139°23'613.1
2018-Feb-15 03:30N 34°47' E 139°16'913.5
2018-Feb-15 02:50N 34°42' E 139°07'512.2
2018-Feb-15 02:28N 34°39' E 139°02'613.2
2018-Feb-15 02:00N 34°36' E 138°56'  

Dump ship's entire track history